Location: Fort Worth, Tx
(32.7431°N, 97.3695°W)
Time: 06:39:39
(UTC-05:00)

Tiros 1 - Pass Details

Date: 16 November 2024
Orbit: 622 x 653 km, 48.4° (Epoch: 05 December)

Event Time Altitude Azimuth Distance (km) Brightness Sun altitude
Rises 18:48:51 0° 288° (WNW) 2,943 11.5 -5.0°
Reaches altitude 10° 18:52:13 10° 313° (NW) 2,041 10.1 -5.7°
Maximum altitude 18:54:47 14° 346° (NNW) 1,768 9.4 -6.2°
Drops below altitude 10° 18:57:23 10° 20° (NNE) 2,051 9.4 -6.7°
Enters shadow 18:59:34 - 38° (NE) 2,600 9.8 -7.2°
